Pagina principale
METAR-TAF:

METAR-TAF

Aeroporti :

Payerne, Svizzera

latitudine: 46-49N, longitudine: 006-57E, altezza: 490 m

Osservazione

Il bollettino è stato emesso 18 minuti fa, alle 13:50 UTC
Vento 14 kt da sud-ovest
Temperature 12°C
Umidità 67%
Pressione 1006 hPa
Visibilità 10 km o più
Poco nuvoloso ad un'altezza di 3300 ft
Nubi sparse ad un'altezza di 3900 ft

METAR: LSMP 271350Z 23014KT 9999 FEW033 SCT039 12/06 Q1006 RMK BLU+

Ora: 16:08 (14:08 UTC)


TAF: mancante

Osservazioni e previsioni meteorologiche di più di 4000 aeroporti (messaggi METAR e TAF).

Le stazioni disponibili sono rappresentate dai dischi gialli e rossi sulla carta.

Puntare il mouse per vedere il nome della stazione.

Clicca sopra per visualizzare le osservazioni e previsioni meteorologiche.

Per cambiare la mappa : fare clic sui pulsanti verdi con una croce nera per ingrandire, il pulsante verde con un trattino per diminuire, o sulla freccia verde per le mappe adiacenti.


METAR-TAF: